Time,TemperatureF,DewpointF,PressureIn,WindDirection,WindDirectionDegrees,WindSpeedMPH,WindSpeedGustMPH,Humidity,HourlyPrecipIn,Conditions,Clouds,dailyrainin,SoftwareType,DateUTC
2013-04-27 00:00:00,66.0,0.0,30.10,South,189,2.0,3.0,33,-99.99,,,-99.99,,2013-04-27 07:00:00,
2013-04-27 00:08:00,0.0,0.0,-0.01,North,0,0.0,0.0,0,-99.99,,,-99.99,,2013-04-27 07:08:00,
2013-04-27 00:16:00,64.0,0.0,30.10,SSW,194,6.0,7.0,33,-99.99,,,-99.99,,2013-04-27 07:16:00,
2013-04-27 00:24:00,63.0,0.0,30.10,North,354,2.0,7.0,34,-99.99,,,-99.99,,2013-04-27 07:24:00,
2013-04-27 00:32:00,64.0,0.0,30.10,SE,126,2.0,6.0,34,-99.99,,,-99.99,,2013-04-27 07:32:00,
2013-04-27 00:40:00,60.0,0.0,30.10,North,361,5.0,7.0,33,-99.99,,,-99.99,,2013-04-27 07:40:00,
2013-04-27 00:48:00,60.0,0.0,30.10,NNE,25,3.0,7.0,34,-99.99,,,-99.99,,2013-04-27 07:48:00,
2013-04-27 00:56:00,59.0,0.0,30.10,NNE,32,3.0,5.0,34,-99.99,,,-99.99,,2013-04-27 07:56:00,
2013-04-27 01:04:00,59.0,0.0,30.10,NE,39,3.0,5.0,34,-99.99,,,-99.99,,2013-04-27 08:04:00,
2013-04-27 01:12:00,58.0,0.0,30.10,NNE,30,5.0,6.0,33,-99.99,,,-99.99,,2013-04-27 08:12:00,
2013-04-27 01:20:00,29.0,0.0,30.10,North,8,5.0,6.0,33,-99.99,,,-99.99,,2013-04-27 08:20:00,
2013-04-27 01:28:00,56.0,0.0,30.10,North,0,3.0,6.0,37,-99.99,,,-99.99,,2013-04-27 08:28:00,
2013-04-27 01:36:00,56.0,0.0,30.10,North,358,5.0,5.0,34,-99.99,,,-99.99,,2013-04-27 08:36:00,
2013-04-27 01:44:00,55.0,0.0,30.10,NNW,343,6.0,6.0,34,-99.99,,,-99.99,,2013-04-27 08:44:00,
2013-04-27 01:52:00,55.0,0.0,30.10,NNW,333,3.0,6.0,33,-99.99,,,-99.99,,2013-04-27 08:52:00,
2013-04-27 02:00:00,28.0,0.0,30.10,North,361,5.0,5.0,39,-99.99,,,-99.99,,2013-04-27 09:00:00,
2013-04-27 02:08:00,28.0,0.0,30.10,North,356,5.0,5.0,36,-99.99,,,-99.99,,2013-04-27 09:08:00,
2013-04-27 02:16:00,29.0,0.0,30.10,North,350,3.0,5.0,36,-99.99,,,-99.99,,2013-04-27 09:16:00,
2013-04-27 02:24:00,57.0,0.0,30.10,North,361,3.0,3.0,39,-99.99,,,-99.99,,2013-04-27 09:24:00,
2013-04-27 02:32:00,55.0,0.0,30.09,North,352,2.0,3.0,35,-99.99,,,-99.99,,2013-04-27 09:32:00,
2013-04-27 02:40:00,56.0,0.0,30.10,North,359,2.0,3.0,35,-99.99,,,-99.99,,2013-04-27 09:40:00,
2013-04-27 02:48:00,56.0,0.0,30.10,SSW,202,3.0,5.0,34,-99.99,,,-99.99,,2013-04-27 09:48:00,
2013-04-27 02:56:00,54.0,0.0,30.10,SW,235,3.0,6.0,36,-99.99,,,-99.99,,2013-04-27 09:56:00,
2013-04-27 03:04:00,55.0,0.0,30.10,West,270,5.0,5.0,33,-99.99,,,-99.99,,2013-04-27 10:04:00,
2013-04-27 03:12:00,53.0,0.0,30.10,WNW,290,2.0,5.0,40,-99.99,,,-99.99,,2013-04-27 10:12:00,
2013-04-27 03:20:00,52.0,0.0,30.11,WNW,300,3.0,5.0,38,-99.99,,,-99.99,,2013-04-27 10:20:00,
2013-04-27 03:28:00,52.0,0.0,30.11,NW,316,3.0,5.0,37,-99.99,,,-99.99,,2013-04-27 10:28:00,
2013-04-27 03:36:00,53.0,0.0,30.11,NW,318,3.0,5.0,36,-99.99,,,-99.99,,2013-04-27 10:36:00,
2013-04-27 03:44:00,53.0,0.0,30.11,NW,325,5.0,6.0,41,-99.99,,,-99.99,,2013-04-27 10:44:00,
2013-04-27 03:52:00,53.0,0.0,30.11,NW,306,6.0,7.0,40,-99.99,,,-99.99,,2013-04-27 10:52:00,
2013-04-27 04:00:00,53.0,0.0,30.11,NW,308,6.0,7.0,38,-99.99,,,-99.99,,2013-04-27 11:00:00,
2013-04-27 04:08:00,52.0,0.0,30.11,ENE,74,2.0,7.0,39,-99.99,,,-99.99,,2013-04-27 11:08:00,
2013-04-27 04:16:00,51.0,0.0,30.11,ESE,107,5.0,5.0,38,-99.99,,,-99.99,,2013-04-27 11:16:00,
2013-04-27 04:24:00,53.0,0.0,30.12,NNE,17,3.0,9.0,37,-99.99,,,-99.99,,2013-04-27 11:24:00,
2013-04-27 04:32:00,53.0,0.0,30.11,East,83,2.0,5.0,36,-99.99,,,-99.99,,2013-04-27 11:32:00,
2013-04-27 04:40:00,53.0,0.0,30.11,WSW,256,0.0,2.0,38,-99.99,,,-99.99,,2013-04-27 11:40:00,
2013-04-27 04:48:00,52.0,0.0,30.12,WSW,254,3.0,3.0,38,-99.99,,,-99.99,,2013-04-27 11:48:00,
2013-04-27 04:56:00,51.0,0.0,30.12,West,281,2.0,6.0,39,-99.99,,,-99.99,,2013-04-27 11:56:00,
2013-04-27 05:04:00,49.0,0.0,30.12,West,273,3.0,5.0,42,-99.99,,,-99.99,,2013-04-27 12:04:00,
2013-04-27 05:12:00,49.0,0.0,30.12,West,273,3.0,5.0,42,-99.99,,,-99.99,,2013-04-27 12:12:00,
2013-04-27 05:20:00,50.0,0.0,30.12,WSW,243,2.0,6.0,39,-99.99,,,-99.99,,2013-04-27 12:20:00,
2013-04-27 05:28:00,49.0,0.0,30.12,WSW,241,6.0,7.0,40,-99.99,,,-99.99,,2013-04-27 12:28:00,
2013-04-27 05:36:00,50.0,0.0,30.12,WSW,258,5.0,7.0,39,-99.99,,,-99.99,,2013-04-27 12:36:00,
2013-04-27 05:44:00,51.0,0.0,30.12,West,270,2.0,6.0,39,-99.99,,,-99.99,,2013-04-27 12:44:00,
2013-04-27 05:52:00,49.0,0.0,30.12,NE,41,5.0,9.0,41,-99.99,,,-99.99,,2013-04-27 12:52:00,
2013-04-27 06:00:00,50.0,0.0,30.13,ENE,78,2.0,7.0,40,-99.99,,,-99.99,,2013-04-27 13:00:00,
2013-04-27 06:08:00,50.0,0.0,30.13,NNE,28,2.0,2.0,38,-99.99,,,-99.99,,2013-04-27 13:08:00,
2013-04-27 06:16:00,49.0,0.0,30.13,ENE,77,3.0,5.0,38,-99.99,,,-99.99,,2013-04-27 13:16:00,
2013-04-27 06:24:00,48.0,0.0,30.13,East,83,3.0,5.0,40,-99.99,,,-99.99,,2013-04-27 13:24:00,
2013-04-27 06:32:00,49.0,0.0,30.14,ESE,120,2.0,5.0,39,-99.99,,,-99.99,,2013-04-27 13:32:00,
2013-04-27 06:40:00,49.0,0.0,30.14,ESE,120,2.0,5.0,39,-99.99,,,-99.99,,2013-04-27 13:40:00,
2013-04-27 06:48:00,50.0,0.0,30.14,SSE,163,3.0,3.0,37,-99.99,,,-99.99,,2013-04-27 13:48:00,
2013-04-27 06:56:00,51.0,0.0,30.14,SE,124,2.0,3.0,36,-99.99,,,-99.99,,2013-04-27 13:56:00,
2013-04-27 07:04:00,53.0,0.0,30.15,SSE,160,2.0,2.0,35,-99.99,,,-99.99,,2013-04-27 14:04:00,
2013-04-27 07:12:00,55.0,0.0,30.15,South,183,1.0,2.0,33,-99.99,,,-99.99,,2013-04-27 14:12:00,
2013-04-27 07:20:00,57.0,0.0,30.15,West,279,1.0,2.0,32,-99.99,,,-99.99,,2013-04-27 14:20:00,
2013-04-27 07:28:00,58.0,0.0,30.15,WSW,242,0.0,2.0,36,-99.99,,,-99.99,,2013-04-27 14:28:00,
2013-04-27 07:36:00,32.0,0.0,30.15,SSW,200,0.0,1.0,31,-99.99,,,-99.99,,2013-04-27 14:36:00,
2013-04-27 07:44:00,61.0,0.0,30.15,NE,53,0.0,1.0,30,-99.99,,,-99.99,,2013-04-27 14:44:00,
2013-04-27 07:52:00,35.0,0.0,30.16,WNW,290,0.0,1.0,28,-99.99,,,-99.99,,2013-04-27 14:52:00,
2013-04-27 08:00:00,63.0,0.0,30.15,SE,140,1.0,2.0,29,-99.99,,,-99.99,,2013-04-27 15:00:00,
2013-04-27 08:08:00,64.0,0.0,30.16,East,83,1.0,1.0,30,-99.99,,,-99.99,,2013-04-27 15:08:00,
2013-04-27 08:16:00,33.0,0.0,30.15,SE,142,2.0,3.0,27,-99.99,,,-99.99,,2013-04-27 15:16:00,
2013-04-27 08:24:00,65.0,0.0,30.16,ESE,108,2.0,3.0,28,-99.99,,,-99.99,,2013-04-27 15:24:00,
2013-04-27 08:32:00,66.0,0.0,30.16,East,100,3.0,5.0,30,-99.99,,,-99.99,,2013-04-27 15:32:00,
2013-04-27 08:40:00,67.0,0.0,30.16,SE,143,2.0,6.0,29,-99.99,,,-99.99,,2013-04-27 15:40:00,
2013-04-27 08:48:00,69.0,0.0,30.16,SE,144,2.0,5.0,26,-99.99,,,-99.99,,2013-04-27 15:48:00,
2013-04-27 08:56:00,70.0,0.0,30.15,SE,138,5.0,6.0,27,-99.99,,,-99.99,,2013-04-27 15:56:00,
2013-04-27 09:04:00,72.0,0.0,30.15,SSE,150,2.0,5.0,24,-99.99,,,-99.99,,2013-04-27 16:04:00,
2013-04-27 09:12:00,72.0,0.0,30.15,SW,217,5.0,6.0,24,-99.99,,,-99.99,,2013-04-27 16:12:00,
2013-04-27 09:20:00,73.0,0.0,30.15,South,187,5.0,6.0,21,-99.99,,,-99.99,,2013-04-27 16:20:00,
2013-04-27 09:28:00,76.0,0.0,30.15,SSE,168,6.0,7.0,21,-99.99,,,-99.99,,2013-04-27 16:28:00,
2013-04-27 09:36:00,77.0,0.0,30.15,South,191,6.0,7.0,18,-99.99,,,-99.99,,2013-04-27 16:36:00,
2013-04-27 09:44:00,77.0,0.0,30.15,SE,144,8.0,8.0,18,-99.99,,,-99.99,,2013-04-27 16:44:00,
2013-04-27 09:52:00,78.0,0.0,30.15,South,175,7.0,9.0,19,-99.99,,,-99.99,,2013-04-27 16:52:00,
2013-04-27 10:00:00,80.0,0.0,30.14,South,188,6.0,10.0,17,-99.99,,,-99.99,,2013-04-27 17:00:00,
2013-04-27 10:08:00,81.0,0.0,30.15,SSE,150,8.0,10.0,17,-99.99,,,-99.99,,2013-04-27 17:08:00,
2013-04-27 10:16:00,82.0,0.0,30.15,SSE,149,7.0,12.0,15,-99.99,,,-99.99,,2013-04-27 17:16:00,
2013-04-27 10:24:00,83.0,0.0,30.15,South,177,6.0,13.0,19,-99.99,,,-99.99,,2013-04-27 17:24:00,
2013-04-27 10:32:00,83.0,0.0,30.14,SE,145,5.0,12.0,16,-99.99,,,-99.99,,2013-04-27 17:32:00,
2013-04-27 10:40:00,84.0,0.0,30.14,SE,130,7.0,10.0,13,-99.99,,,-99.99,,2013-04-27 17:40:00,
2013-04-27 10:48:00,84.0,0.0,30.14,South,180,7.0,12.0,14,-99.99,,,-99.99,,2013-04-27 17:48:00,
2013-04-27 10:56:00,86.0,0.0,30.14,South,180,6.0,12.0,15,-99.99,,,-99.99,,2013-04-27 17:56:00,
2013-04-27 11:04:00,86.0,0.0,30.14,South,187,7.0,10.0,14,-99.99,,,-99.99,,2013-04-27 18:04:00,
2013-04-27 11:12:00,86.0,0.0,30.14,South,188,9.0,12.0,14,-99.99,,,-99.99,,2013-04-27 18:12:00,
2013-04-27 11:20:00,87.0,0.0,30.14,SSE,148,14.0,16.0,16,-99.99,,,-99.99,,2013-04-27 18:20:00,
2013-04-27 11:28:00,87.0,0.0,30.13,SSW,192,8.0,16.0,14,-99.99,,,-99.99,,2013-04-27 18:28:00,
2013-04-27 11:36:00,87.0,0.0,30.13,SW,222,5.0,12.0,12,-99.99,,,-99.99,,2013-04-27 18:36:00,
2013-04-27 11:44:00,88.0,0.0,30.13,South,178,6.0,10.0,11,-99.99,,,-99.99,,2013-04-27 18:44:00,
2013-04-27 11:52:00,89.0,0.0,30.13,SE,136,13.0,16.0,13,-99.99,,,-99.99,,2013-04-27 18:52:00,
2013-04-27 12:00:00,89.0,0.0,30.12,SSW,192,10.0,16.0,15,-99.99,,,-99.99,,2013-04-27 19:00:00,
2013-04-27 12:08:00,89.0,0.0,30.12,SSW,192,5.0,15.0,13,-99.99,,,-99.99,,2013-04-27 19:08:00,
2013-04-27 12:16:00,88.0,0.0,30.11,South,169,7.0,12.0,11,-99.99,,,-99.99,,2013-04-27 19:16:00,
2013-04-27 12:24:00,90.0,0.0,30.11,SW,230,2.0,12.0,11,-99.99,,,-99.99,,2013-04-27 19:24:00,
2013-04-27 12:32:00,90.0,0.0,30.10,South,173,13.0,15.0,13,-99.99,,,-99.99,,2013-04-27 19:32:00,
2013-04-27 12:40:00,90.0,0.0,30.09,SSE,150,7.0,17.0,13,-99.99,,,-99.99,,2013-04-27 19:40:00,
2013-04-27 12:48:00,90.0,0.0,30.09,SSE,153,8.0,17.0,10,-99.99,,,-99.99,,2013-04-27 19:48:00,
2013-04-27 12:56:00,90.0,0.0,30.09,SSE,157,9.0,16.0,12,-99.99,,,-99.99,,2013-04-27 19:56:00,
2013-04-27 13:04:00,89.0,0.0,30.08,ESE,104,8.0,18.0,12,-99.99,,,-99.99,,2013-04-27 20:04:00,
2013-04-27 13:12:00,89.0,0.0,30.09,ESE,121,13.0,18.0,10,-99.99,,,-99.99,,2013-04-27 20:12:00,
2013-04-27 13:20:00,90.0,0.0,30.08,SSE,167,6.0,20.0,10,-99.99,,,-99.99,,2013-04-27 20:20:00,
2013-04-27 13:28:00,92.0,0.0,30.07,South,183,3.0,18.0,12,-99.99,,,-99.99,,2013-04-27 20:28:00,
2013-04-27 13:36:00,91.0,0.0,30.07,SSE,168,14.0,18.0,13,-99.99,,,-99.99,,2013-04-27 20:36:00,
2013-04-27 13:44:00,91.0,0.0,30.07,SE,146,7.0,18.0,11,-99.99,,,-99.99,,2013-04-27 20:44:00,
2013-04-27 13:52:00,91.0,0.0,30.06,SSW,197,7.0,16.0,10,-99.99,,,-99.99,,2013-04-27 20:52:00,
2013-04-27 14:00:00,93.0,0.0,30.06,SE,144,8.0,16.0,12,-99.99,,,-99.99,,2013-04-27 21:00:00,
2013-04-27 14:08:00,91.0,0.0,30.05,NNW,343,5.0,12.0,12,-99.99,,,-99.99,,2013-04-27 21:08:00,
2013-04-27 14:16:00,91.0,0.0,30.05,SE,136,5.0,12.0,11,-99.99,,,-99.99,,2013-04-27 21:16:00,
2013-04-27 14:24:00,92.0,0.0,30.04,ENE,78,10.0,20.0,9,-99.99,,,-99.99,,2013-04-27 21:24:00,
2013-04-27 14:32:00,91.0,0.0,30.04,ENE,67,8.0,20.0,13,-99.99,,,-99.99,,2013-04-27 21:32:00,
2013-04-27 14:40:00,91.0,0.0,30.04,ESE,109,7.0,20.0,12,-99.99,,,-99.99,,2013-04-27 21:40:00,
2013-04-27 14:48:00,92.0,0.0,30.03,SE,138,12.0,18.0,12,-99.99,,,-99.99,,2013-04-27 21:48:00,
2013-04-27 14:56:00,91.0,0.0,30.03,SE,146,9.0,16.0,12,-99.99,,,-99.99,,2013-04-27 21:56:00,
2013-04-27 15:04:00,92.0,0.0,30.02,South,186,7.0,15.0,11,-99.99,,,-99.99,,2013-04-27 22:04:00,
2013-04-27 15:12:00,92.0,0.0,30.02,ESE,122,2.0,10.0,11,-99.99,,,-99.99,,2013-04-27 22:12:00,
2013-04-27 15:20:00,92.0,0.0,30.01,SSE,149,15.0,15.0,9,-99.99,,,-99.99,,2013-04-27 22:20:00,
2013-04-27 15:28:00,91.0,0.0,30.01,ESE,119,6.0,15.0,11,-99.99,,,-99.99,,2013-04-27 22:28:00,
2013-04-27 15:36:00,92.0,0.0,30.00,South,183,6.0,7.0,9,-99.99,,,-99.99,,2013-04-27 22:36:00,
2013-04-27 15:44:00,93.0,0.0,30.00,ENE,77,1.0,16.0,9,-99.99,,,-99.99,,2013-04-27 22:44:00,
2013-04-27 15:52:00,92.0,0.0,30.00,South,185,6.0,10.0,10,-99.99,,,-99.99,,2013-04-27 22:52:00,
2013-04-27 16:00:00,92.0,0.0,30.00,SW,215,6.0,8.0,11,-99.99,,,-99.99,,2013-04-27 23:00:00,
2013-04-27 16:08:00,93.0,0.0,29.99,West,265,7.0,10.0,13,-99.99,,,-99.99,,2013-04-27 23:08:00,
2013-04-27 16:16:00,93.0,0.0,29.99,West,277,10.0,13.0,13,-99.99,,,-99.99,,2013-04-27 23:16:00,
2013-04-27 16:24:00,93.0,0.0,29.99,North,352,3.0,14.0,11,-99.99,,,-99.99,,2013-04-27 23:24:00,
2013-04-27 16:32:00,94.0,0.0,29.99,WNW,286,2.0,6.0,11,-99.99,,,-99.99,,2013-04-27 23:32:00,
2013-04-27 16:40:00,93.0,0.0,29.98,West,275,7.0,9.0,12,-99.99,,,-99.99,,2013-04-27 23:40:00,
2013-04-27 16:48:00,93.0,0.0,29.98,South,182,9.0,13.0,11,-99.99,,,-99.99,,2013-04-27 23:48:00,
2013-04-27 16:56:00,92.0,0.0,29.98,SSW,213,1.0,14.0,9,-99.99,,,-99.99,,2013-04-27 23:56:00,
2013-04-27 17:04:00,92.0,0.0,29.98,SW,222,6.0,14.0,12,-99.99,,,-99.99,,2013-04-28 00:04:00,
2013-04-27 17:12:00,93.0,0.0,29.97,WSW,252,8.0,9.0,9,-99.99,,,-99.99,,2013-04-28 00:12:00,
2013-04-27 17:20:00,93.0,0.0,29.97,SSW,193,8.0,9.0,9,-99.99,,,-99.99,,2013-04-28 00:20:00,
2013-04-27 17:28:00,92.0,0.0,29.97,WSW,258,1.0,12.0,11,-99.99,,,-99.99,,2013-04-28 00:28:00,
2013-04-27 17:36:00,92.0,0.0,29.97,SSE,152,7.0,15.0,9,-99.99,,,-99.99,,2013-04-28 00:36:00,
2013-04-27 17:44:00,92.0,0.0,29.97,South,188,5.0,15.0,9,-99.99,,,-99.99,,2013-04-28 00:44:00,
2013-04-27 17:52:00,91.0,0.0,29.96,SSE,155,5.0,12.0,9,-99.99,,,-99.99,,2013-04-28 00:52:00,
2013-04-27 18:00:00,92.0,0.0,29.96,SE,131,12.0,14.0,9,-99.99,,,-99.99,,2013-04-28 01:00:00,
2013-04-27 18:08:00,91.0,0.0,29.96,South,183,6.0,13.0,11,-99.99,,,-99.99,,2013-04-28 01:08:00,
2013-04-27 18:16:00,91.0,0.0,29.96,South,180,10.0,15.0,10,-99.99,,,-99.99,,2013-04-28 01:16:00,
2013-04-27 18:24:00,90.0,0.0,29.95,SSE,162,9.0,15.0,9,-99.99,,,-99.99,,2013-04-28 01:24:00,
2013-04-27 18:32:00,90.0,0.0,29.96,South,174,8.0,10.0,11,-99.99,,,-99.99,,2013-04-28 01:32:00,
2013-04-27 18:40:00,90.0,0.0,29.96,WSW,256,9.0,13.0,13,-99.99,,,-99.99,,2013-04-28 01:40:00,
2013-04-27 18:48:00,90.0,0.0,29.95,West,269,12.0,16.0,11,-99.99,,,-99.99,,2013-04-28 01:48:00,
2013-04-27 18:56:00,89.0,0.0,29.95,WNW,300,9.0,21.0,12,-99.99,,,-99.99,,2013-04-28 01:56:00,
2013-04-27 19:04:00,88.0,0.0,29.95,WNW,295,15.0,21.0,12,-99.99,,,-99.99,,2013-04-28 02:04:00,
2013-04-27 19:12:00,88.0,0.0,29.95,NW,314,13.0,18.0,13,-99.99,,,-99.99,,2013-04-28 02:12:00,
2013-04-27 19:20:00,87.0,0.0,29.95,NW,306,9.0,17.0,13,-99.99,,,-99.99,,2013-04-28 02:20:00,
2013-04-27 19:28:00,86.0,0.0,29.95,West,281,20.0,20.0,15,-99.99,,,-99.99,,2013-04-28 02:28:00,
2013-04-27 19:36:00,85.0,0.0,29.95,WSW,253,15.0,20.0,15,-99.99,,,-99.99,,2013-04-28 02:36:00,
2013-04-27 19:44:00,84.0,0.0,29.96,West,263,7.0,15.0,16,-99.99,,,-99.99,,2013-04-28 02:44:00,
2013-04-27 19:52:00,83.0,0.0,29.96,WNW,296,7.0,12.0,14,-99.99,,,-99.99,,2013-04-28 02:52:00,
2013-04-27 20:00:00,83.0,0.0,29.96,WNW,284,7.0,10.0,14,-99.99,,,-99.99,,2013-04-28 03:00:00,
2013-04-27 20:08:00,83.0,0.0,29.96,WNW,284,7.0,10.0,14,-99.99,,,-99.99,,2013-04-28 03:08:00,
2013-04-27 20:16:00,82.0,0.0,29.96,WNW,286,7.0,14.0,16,-99.99,,,-99.99,,2013-04-28 03:16:00,
2013-04-27 20:24:00,81.0,0.0,29.96,West,269,7.0,14.0,18,-99.99,,,-99.99,,2013-04-28 03:24:00,
2013-04-27 20:32:00,81.0,0.0,29.96,West,271,5.0,9.0,18,-99.99,,,-99.99,,2013-04-28 03:32:00,
2013-04-27 20:40:00,79.0,0.0,29.97,WNW,303,6.0,7.0,19,-99.99,,,-99.99,,2013-04-28 03:40:00,
2013-04-27 20:48:00,78.0,0.0,29.97,WNW,303,7.0,7.0,18,-99.99,,,-99.99,,2013-04-28 03:48:00,
2013-04-27 20:56:00,77.0,0.0,29.97,NW,313,7.0,7.0,18,-99.99,,,-99.99,,2013-04-28 03:56:00,
2013-04-27 21:04:00,42.0,0.0,29.98,NW,315,6.0,7.0,18,-99.99,,,-99.99,,2013-04-28 04:04:00,
2013-04-27 21:08:00,41.0,0.0,29.97,NW,311,7.0,7.0,18,-99.99,,,-99.99,,2013-04-28 04:08:00,
2013-04-27 21:12:00,42.0,0.0,29.98,WNW,301,7.0,8.0,18,-99.99,,,-99.99,,2013-04-28 04:12:00,
2013-04-27 21:20:00,41.0,0.0,29.98,NW,304,5.0,7.0,20,-99.99,,,-99.99,,2013-04-28 04:20:00,
2013-04-27 21:28:00,41.0,0.0,29.98,NW,312,9.0,9.0,19,-99.99,,,-99.99,,2013-04-28 04:28:00,
2013-04-27 21:36:00,41.0,0.0,29.98,NW,312,9.0,9.0,19,-99.99,,,-99.99,,2013-04-28 04:36:00,
2013-04-27 21:40:00,40.0,0.0,29.98,ESE,115,6.0,10.0,19,-99.99,,,-99.99,,2013-04-28 04:40:00,
2013-04-27 21:48:00,40.0,0.0,29.98,ESE,115,6.0,10.0,19,-99.99,,,-99.99,,2013-04-28 04:48:00,
2013-04-27 21:56:00,79.0,0.0,29.98,WSW,258,2.0,8.0,19,-99.99,,,-99.99,,2013-04-28 04:56:00,
2013-04-27 22:04:00,77.0,0.0,29.99,SE,128,3.0,5.0,23,-99.99,,,-99.99,,2013-04-28 05:04:00,
2013-04-27 22:12:00,76.0,0.0,29.99,SE,141,5.0,5.0,19,-99.99,,,-99.99,,2013-04-28 05:12:00,
2013-04-27 22:20:00,74.0,0.0,29.98,SSE,166,2.0,6.0,21,-99.99,,,-99.99,,2013-04-28 05:20:00,
2013-04-27 22:28:00,74.0,0.0,29.98,SSE,162,3.0,5.0,21,-99.99,,,-99.99,,2013-04-28 05:28:00,
2013-04-27 22:36:00,74.0,0.0,29.98,SE,138,6.0,6.0,22,-99.99,,,-99.99,,2013-04-28 05:36:00,
2013-04-27 22:44:00,70.0,0.0,29.99,SE,131,5.0,7.0,24,-99.99,,,-99.99,,2013-04-28 05:44:00,
2013-04-27 22:52:00,70.0,0.0,29.98,SSW,194,5.0,6.0,22,-99.99,,,-99.99,,2013-04-28 05:52:00,
2013-04-27 23:00:00,71.0,0.0,29.98,SSW,208,7.0,7.0,22,-99.99,,,-99.99,,2013-04-28 06:00:00,
2013-04-27 23:08:00,72.0,0.0,29.98,SSW,213,6.0,7.0,23,-99.99,,,-99.99,,2013-04-28 06:08:00,
2013-04-27 23:16:00,70.0,0.0,29.98,SSW,204,7.0,7.0,23,-99.99,,,-99.99,,2013-04-28 06:16:00,
2013-04-27 23:24:00,68.0,0.0,29.98,South,188,1.0,8.0,23,-99.99,,,-99.99,,2013-04-28 06:24:00,
2013-04-27 23:32:00,67.0,0.0,29.98,SSW,195,2.0,5.0,24,-99.99,,,-99.99,,2013-04-28 06:32:00,
2013-04-27 23:40:00,66.0,0.0,29.98,South,174,0.0,3.0,24,-99.99,,,-99.99,,2013-04-28 06:40:00,
2013-04-27 23:48:00,65.0,0.0,29.98,SE,142,1.0,5.0,25,-99.99,,,-99.99,,2013-04-28 06:48:00,
2013-04-27 23:56:00,67.0,0.0,29.98,SW,220,3.0,3.0,24,-99.99,,,-99.99,,2013-04-28 06:56:00,